Flag for U.S.A. Weather past 2 weeks in Fort Lauderdale, Florida, U.S.A.

Now
94 °F

Passing clouds.


Feels Like: 101 °F
Forecast: 76 / 94 °F
Wind: 15 mph from West

Location: Fort Lauderdale / Hollywood International Airport

Current Time: Apr 26, 2015 at 5:23:36 PM

Latest Report: Apr 26, 2015 at 4:53 PM


Visibility: 10 mi

Pressure: 29.74 "Hg

Humidity: 48%

Dew point: 71 °F

Location of Fort LauderdaleLocation

Historic Weather in Fort Lauderdale — Graph

°F

Fort Lauderdale temperature yesterday

Maximum temperature yesterday: 87 °F (at 2:53 PM)
Minimum temperature yesterday: 78 °F (at 12:53 AM)
Average temperature yesterday: 81 °F

Past Weeks' High & Low Weather Summary

 TemperatureHumidityPressure
High95 °F (Apr 26, 1:53 PM)97% (Apr 24, 2:53 AM)30.17 "Hg (Apr 24, 2:53 AM)
Low74 °F (Apr 22, 6:53 AM)46% (Apr 26, 1:53 PM)29.76 "Hg (Apr 26, 3:53 PM)
Average80 °F76%29.99 "Hg
* Reported Apr 11 3:53 PM — Apr 26 3:53 PM, Fort Lauderdale, Weather by CustomWeather, © 2015

Note: Actual official high and low records may vary slightly from our data, if they occured in-between our weather recording intervals... More about our weather records

Advertising

Fort Lauderdale weather history for previous 24 hours

 ConditionsComfort  
Time TempWeatherWind HumidityBarometerVisibility
3:53 PM
Sun, Apr 26
95 °FPassing clouds.16 mph46%29.76 "Hg10 mi
2:53 PM95 °FPassing clouds.20 mph46%29.77 "Hg10 mi
1:53 PM95 °FPassing clouds.21 mph46%29.78 "Hg10 mi
12:53 PM93 °FPassing clouds.17 mph49%29.80 "Hg10 mi
11:53 AM91 °FSunny.20 mph52%29.81 "Hg10 mi
10:53 AM88 °FSunny.15 mph59%29.82 "Hg10 mi
9:53 AM85 °FSunny.17 mph72%29.82 "Hg10 mi
8:53 AM82 °FPassing clouds.10 mph82%29.83 "Hg10 mi
7:53 AM78 °FPassing clouds.7 mph87%29.83 "Hg10 mi
6:53 AM77 °FPassing clouds.8 mph88%29.81 "Hg10 mi
5:53 AM78 °FClear.9 mph87%29.82 "Hg10 mi
4:53 AM77 °FClear.3 mph90%29.82 "Hg9 mi
3:53 AM77 °FClear.3 mph90%29.83 "Hg10 mi
2:53 AM77 °FClear.6 mph90%29.83 "Hg10 mi
1:53 AM77 °FClear.7 mph90%29.87 "Hg10 mi
12:53 AM78 °FClear.9 mph87%29.88 "Hg10 mi
11:53 PM
Sat, Apr 25
79 °FClear.7 mph82%29.88 "Hg10 mi
10:53 PM80 °FClear.10 mph76%29.88 "Hg10 mi
9:53 PM82 °FPassing clouds.10 mph72%29.86 "Hg10 mi
8:53 PM82 °FPassing clouds.No wind82%29.85 "Hg10 mi
7:53 PM83 °FBroken clouds.8 mph79%29.84 "Hg10 mi
6:53 PM83 °FScattered clouds.8 mph79%29.83 "Hg10 mi
5:53 PM83 °FPartly sunny.9 mph82%29.83 "Hg10 mi
Weather by CustomWeather, © 2015

See weather overviewHow to use our weather pages